Flag for Costa Rica Weather past 2 weeks in Alajuela, Costa Rica

Now
81 °F

Scattered clouds.


Feels Like: 81 °F
Forecast: 71 / 82 °F
Wind: 14 mph from East

Location: Juan Santamaria


UV Index: 3 (Moderate)

Visibility: N/A


Pressure: 30.01 "Hg

Humidity: 51%

Dew point: 61 °F

Location of AlajuelaLocation

Historic Weather in Alajuela

°F

Alajuela temperature yesterday

Maximum temperature yesterday: 86 °F (at 2:00 PM)
Minimum temperature yesterday: 70 °F (at 12:00 AM)
Average temperature yesterday: 76 °F

Past Weeks' High & Low Weather Summary

 TemperatureHumidityPressure
High90 °F (Apr 8, 1:00 PM)88% (Apr 7, 10:00 PM)30.08 "Hg (Apr 7, 10:00 PM)
Low66 °F (Apr 8, 3:00 AM)31% (Apr 17, 2:00 PM)29.89 "Hg (Apr 13, 4:00 PM)
Average75 °F59%29.98 "Hg
* Reported Apr 6 9:00 AM — Apr 21 9:00 AM, Alajuela, Weather by CustomWeather, © 2014

Note: Actual official high and low records may vary slightly from our data, if they occured in-between our weather recording intervals... More about our weather records

Advertising

Historic Weather Conditions — Data for Previous 24 hours

 ConditionsComfort  
Time TempWeatherWind HumidityBarometerVisibility
9:00 AM
Apr 21
81 °FScattered clouds.14 mph51%30.01 "HgN/A
8:00 AM77 °FPassing clouds.12 mph57%30.02 "HgN/A
7:00 AM75 °FPassing clouds.9 mph61%30.02 "HgN/A
6:00 AM72 °FPassing clouds.7 mph73%30.00 "HgN/A
5:00 AM72 °FPassing clouds.10 mph69%29.99 "HgN/A
4:00 AM72 °FPassing clouds.12 mph69%29.98 "HgN/A
3:00 AM72 °FPassing clouds.12 mph69%29.98 "HgN/A
2:00 AM72 °FPassing clouds.12 mph69%29.99 "HgN/A
1:00 AM72 °FPassing clouds.12 mph69%30.01 "HgN/A
12:00 AM72 °FPassing clouds.12 mph69%30.03 "HgN/A
11:00 PM
Apr 20
72 °FPassing clouds.8 mph69%30.04 "HgN/A
10:00 PM72 °FPassing clouds.12 mph69%30.04 "HgN/A
9:00 PM73 °FPassing clouds.12 mph65%30.03 "HgN/A
8:00 PM73 °FPassing clouds.14 mph65%30.00 "HgN/A
7:00 PM73 °FPassing clouds.16 mph65%30.01 "HgN/A
6:00 PM75 °FPartly cloudy.16 mph65%30.00 "HgN/A
5:00 PM79 °FBroken clouds.9 mph54%29.97 "HgN/A
4:00 PM81 °FBroken clouds.15 mph51%29.96 "HgN/A
3:00 PM86 °FScattered clouds.16 mph38%29.96 "HgN/A
2:00 PM86 °FScattered clouds.14 mph40%29.99 "HgN/A
1:00 PM82 °FScattered clouds.13 mph45%30.01 "HgN/A
12:00 PM81 °FPartly sunny.12 mph48%30.03 "HgN/A
11:00 AM81 °FPartly sunny.16 mph48%30.04 "HgN/A
10:00 AM81 °FBroken clouds.12 mph48%30.06 "HgN/A
Weather by CustomWeather, © 2014

See weather overview